Location: ????????
(55.0559°N, 39.1270°E)
Time: 01:14:22
(UTC+00:00)

Resurs 1-4 Rocket - Pass Details

Date: 15 November 2025
Orbit: 799 x 811 km, 98.8° (Epoch: 11 December)

Event Time Altitude Azimuth Distance (km) Brightness Sun altitude
Rises 02:25:47 0° 10° (N) 3,339 5.4 -21.1°
Reaches altitude 10° 02:29:03 10° 349° (N) 2,406 4.4 -20.6°
Enters shadow 02:30:18 13° 336° (NNW) 2,176 4.1 -20.5°
